Change the Weather History Date:

Tuesday, August 27, 2013

  Actual Average Record
Temperature  
Mean Temperature 84 °F -  
Max Temperature 89 °F 86 °F 90 °F (2002)
Min Temperature 78 °F 74 °F 46 °F (1997)
Cooling Degree Days 18    
Growing Degree Days 34 (Base 50)    
Moisture  
Dew Point 77 °F    
Average Humidity 79    
Maximum Humidity 100    
Minimum Humidity 61    
Precipitation  
Precipitation 0.11 in - - ()
Sea Level Pressure  
Sea Level Pressure 29.98 in    
Wind  
Wind Speed 7 mph (East)    
Max Wind Speed 14 mph    
Max Gust Speed 21 mph    
Visibility 9 miles    
Events Rain    
Averages and records for this station are not official NWS values.
T = Trace of Precipitation, MM = Missing Value Source: NWS Daily Summary

Daily Weather History Graph

Daily Weather History Graph

Search for Another Location

Airport or City:

Trip Planner

Search our weather history database for the weather conditions in past years. The results will help you decide how hot, cold, wet, or windy it might be!

Date:

Astronomy

Aug. 27, 2013 Rise Set
Actual Time 6:07 AM AST 6:40 PM AST
Civil Twilight 5:45 AM AST 7:02 PM AST
Nautical Twilight 5:19 AM AST 7:28 PM AST
Astronomical Twilight 4:52 AM AST 7:54 PM AST
Moon 11:33 PM AST (8/27) 12:00 PM AST (8/27)
Length of Visible Light 13h 17m
Length of Day
12h 33m
Waning Gibbous, 57% of the Moon is Illuminated
Aug 27
Waning Gibbous
Aug 28
Last Quarter
Sep 5
New
Sep 12
First Quarter
Sep 19
Full

Hourly Weather History & Observations

Time (AST) Temp. Heat Index Dew Point Humidity Pressure Visibility Wind Dir Wind Speed Gust Speed Precip Events Conditions
12:25 AM 82.4 °F 90.9 °F 77.0 °F 84% 29.97 in 10.0 mi East 5.8 mph - N/A   Mostly Cloudy
12:53 AM 80.1 °F 85.8 °F 77.0 °F 90% 29.96 in 3.0 mi ENE 5.8 mph - 0.03 in Rain Light Rain
1:53 AM 82.0 °F 91.0 °F 78.1 °F 88% 29.94 in 10.0 mi East 6.9 mph - 0.00 in   Partly Cloudy
2:41 AM 78.8 °F - 78.8 °F 100% 29.95 in 2.5 mi SE 11.5 mph 20.7 mph 0.06 in Rain Light Rain
2:48 AM 78.8 °F - 77.0 °F 94% 29.94 in 6.0 mi Calm Calm - 0.06 in Rain Light Rain
2:53 AM 78.1 °F - 78.1 °F 100% 29.94 in 7.0 mi Calm Calm - 0.06 in   Overcast
3:53 AM 80.1 °F 86.7 °F 79.0 °F 96% 29.94 in 9.0 mi East 8.1 mph - 0.01 in   Overcast
4:06 AM 80.6 °F 88.1 °F 78.8 °F 94% 29.94 in 10.0 mi East 9.2 mph - 0.01 in   Overcast
4:53 AM 80.1 °F 85.4 °F 75.9 °F 87% 29.94 in 10.0 mi Calm Calm - 0.01 in   Mostly Cloudy
5:23 AM 80.6 °F 88.1 °F 78.8 °F 94% 29.95 in 10.0 mi Calm Calm - N/A   Mostly Cloudy
5:34 AM 80.6 °F 88.1 °F 78.8 °F 94% 29.95 in 10.0 mi ESE 4.6 mph - N/A   Mostly Cloudy
5:42 AM 82.4 °F 90.9 °F 77.0 °F 84% 29.95 in 10.0 mi ESE 9.2 mph - N/A   Mostly Cloudy
5:53 AM 81.0 °F 88.6 °F 78.1 °F 91% 29.96 in 10.0 mi East 5.8 mph - N/A   Mostly Cloudy
6:08 AM 80.6 °F 86.2 °F 75.2 °F 84% 29.96 in 10.0 mi East 6.9 mph - N/A   Scattered Clouds
6:53 AM 82.9 °F 92.8 °F 78.1 °F 85% 29.97 in 10.0 mi East 10.4 mph - N/A   Mostly Cloudy
7:41 AM 84.2 °F 94.1 °F 77.0 °F 79% 30.00 in 10.0 mi East 6.9 mph - N/A   Mostly Cloudy
7:53 AM 84.0 °F 93.7 °F 77.0 °F 79% 30.00 in 10.0 mi ENE 9.2 mph - N/A   Mostly Cloudy
8:02 AM 84.2 °F 94.1 °F 77.0 °F 79% 30.00 in 10.0 mi East 10.4 mph - N/A   Mostly Cloudy
8:53 AM 86.0 °F 96.0 °F 75.9 °F 72% 30.01 in 10.0 mi ESE 10.4 mph 17.3 mph N/A   Clear
9:34 AM 87.8 °F 97.6 °F 75.2 °F 66% 30.02 in 10.0 mi East 10.4 mph - N/A   Mostly Cloudy
9:53 AM 88.0 °F 100.2 °F 77.0 °F 70% 30.03 in 10.0 mi ESE 9.2 mph - N/A   Mostly Cloudy
10:43 AM 87.8 °F 99.7 °F 77.0 °F 70% 30.03 in 10.0 mi East 8.1 mph - N/A   Scattered Clouds
10:53 AM 89.1 °F 101.4 °F 77.0 °F 67% 30.03 in 10.0 mi East 9.2 mph - N/A   Scattered Clouds
11:45 AM 89.6 °F 99.8 °F 75.2 °F 62% 30.02 in 10.0 mi ENE 9.2 mph - N/A   Mostly Cloudy
11:53 AM 89.1 °F 100.2 °F 75.9 °F 65% 30.01 in 10.0 mi East 11.5 mph - N/A   Mostly Cloudy
12:03 PM 87.8 °F 99.7 °F 77.0 °F 70% 30.01 in 10.0 mi East 10.4 mph - N/A   Scattered Clouds
12:53 PM 89.1 °F 99.1 °F 75.0 °F 63% 30.00 in 10.0 mi ESE 13.8 mph - N/A   Clear
1:53 PM 89.1 °F 101.4 °F 77.0 °F 67% 29.98 in 10.0 mi East 11.5 mph - N/A   Clear
2:53 PM 89.1 °F 98.0 °F 73.9 °F 61% 29.96 in 10.0 mi ESE 12.7 mph - N/A   Clear
3:53 PM 88.0 °F 96.5 °F 73.9 °F 63% 29.95 in 10.0 mi East 8.1 mph - N/A   Clear
4:53 PM 88.0 °F 98.5 °F 75.9 °F 67% 29.95 in 10.0 mi ESE 6.9 mph - N/A   Clear
5:53 PM 84.9 °F 94.1 °F 75.9 °F 74% 29.96 in 10.0 mi ESE 8.1 mph - N/A   Partly Cloudy
6:53 PM 82.9 °F 90.2 °F 75.0 °F 77% 29.97 in 10.0 mi ESE 8.1 mph - N/A   Clear
7:53 PM 82.9 °F 90.2 °F 75.0 °F 77% 29.98 in 10.0 mi East 6.9 mph - N/A   Clear
8:53 PM 82.9 °F 90.2 °F 75.0 °F 77% 30.00 in 10.0 mi ESE 6.9 mph - N/A   Scattered Clouds
9:53 PM 82.9 °F 89.4 °F 73.9 °F 74% 30.02 in 10.0 mi ESE 8.1 mph - N/A   Partly Cloudy
10:53 PM 82.9 °F 90.2 °F 75.0 °F 77% 30.03 in 10.0 mi ESE 5.8 mph - N/A   Partly Cloudy
11:53 PM 82.0 °F 88.6 °F 75.0 °F 79% 30.03 in 10.0 mi East 5.8 mph - N/A   Scattered Clouds